FW0523 Weather Reports


Display with metric or nautical units.
time (UTC)temp
F
wind
direction
speed
MPH
gust
MPH
rain 1hr
in
rain 24hr
in
rain mn
in
humidity
%
barometer
mb
20260831033202 60 326 1.0 9.0 0.00 0.00 3.94 71 1032.8
20260831032203 61 140 0.0 3.0 0.00 0.00 0.97 69 1032.2
20260831031204 62 360 1.0 5.0 0.00 0.00 0.73 66 1031.6
20260831030202 63 360 0.0 4.0 0.00 0.00 0.05 63 1030.7
20260831025203 63 169 3.0 8.0 0.00 0.00 0.05 61 1029.9
20260831024204 63 332 0.0 7.0 0.00 0.00 0.05 59 1029.5
20260831022104 64 172 1.0 8.0 0.00 0.00 0.05 58 1029.2
20260831014904 65 360 1.0 1.0 0.00 0.00 0.05 49 1028.8
20260831012804 65 318 3.0 21.0 0.00 0.00 0.05 45 1028.5
20260831011802 66 359 6.0 20.0 0.00 0.00 0.05 44 1028.1
20260831010803 67 352 9.0 25.0 0.00 0.00 0.05 44 1027.7
20260831005804 68 354 7.0 4.0 0.00 0.00 0.05 50 1027.5
20260831003704 68 31 4.0 8.0 0.00 0.00 0.05 51 1027.1
20260831002703 68 344 5.0 7.0 0.00 0.00 0.05 49 1026.8
20260831001703 70 336 3.0 7.0 0.00 0.00 0.05 46 1026.9
20260831000703 71 75 2.0 7.0 0.00 0.00 0.05 37 1026.8
20260830235704 71 360 2.0 9.0 0.00 0.00 0.05 38 1026.5
20260830234705 71 360 1.0 8.0 0.00 0.00 0.05 40 1026.7
20260830233705 71 117 0.0 7.0 0.00 0.00 0.05 45 1026.9
20260830232703 71 154 1.0 10.0 0.00 0.00 0.05 48 1026.8
20260830231703 69 145 0.0 7.0 0.00 0.00 0.05 51 1026.8
20260830230704 68 360 0.0 9.0 0.00 0.00 0.05 52 1026.9
20260830225702 68 45 0.0 2.0 0.00 0.00 0.05 53 1026.9
20260830224703 68 17 6.0 8.0 0.00 0.00 0.05 51 1026.8
20260830223704 67 356 3.0 6.0 0.00 0.00 0.05 51 1027.1
20260830221604 67 336 3.0 8.0 0.00 0.00 0.05 52 1027.3
20260830215502 66 99 12.0 16.0 0.00 0.00 0.05 55 1027.3
20260830214503 67 24 8.0 19.0 0.00 0.00 0.05 53 1027.7
20260830213504 67 329 6.0 24.0 0.00 0.00 0.05 55 1027.6
20260830212502 68 360 8.0 15.0 0.00 0.00 0.05 52 1027.5
20260830211503 68 360 6.0 19.0 0.00 0.00 0.05 51 1027.2
20260830210504 71 16 10.0 12.0 0.00 0.00 0.05 46 1027.3
20260830205504 74 336 8.0 9.0 0.00 0.00 0.05 40 1027.2
20260830204504 75 360 0.0 7.0 0.00 0.00 0.05 29 1027.2
20260830202404 78 52 1.0 10.0 0.00 0.00 0.01 21 1026.7
20260830201402 78 287 0.0 8.0 0.00 0.00 0.01 23 1026.4
20260830200403 77 335 0.0 13.0 0.00 0.00 0.01 24 1026.7
20260830195403 77 82 0.0 5.0 0.00 0.00 0.01 24 1026.7
20260830193305 75 160 3.0 9.0 0.00 0.00 0.01 26 1026.8
20260830192305 75 86 6.0 12.0 0.00 0.00 0.01 26 1026.9
20260830190204 74 360 1.0 9.0 0.00 0.00 0.01 32 1026.9
20260830184102 74 17 0.0 5.0 0.00 0.00 0.01 33 1027.2
20260830182004 72 49 0.0 4.0 0.00 0.00 0.01 43 1027.3
20260830181002 71 346 0.0 0.0 0.00 0.00 0.01 46 1027.5
20260830180002 71 346 0.0 0.0 0.00 0.00 0.01 44 1027.7
20260830175003 70 7 0.0 6.0 0.00 0.00 0.01 44 1027.9
20260830174005 70 78 3.0 10.0 0.00 0.00 0.01 46 1028.0
20260830171903 72 206 5.0 6.0 0.00 0.00 0.00 40 1028.3
20260830170905 72 360 2.0 9.0 0.00 0.00 0.00 39 1028.0
20260830165903 72 360 0.0 7.0 0.00 0.00 0.00 39 1028.0
20260830163803 69 360 1.0 2.0 0.00 0.00 0.00 47 1028.3
20260830162804 69 11 0.0 2.0 0.00 0.00 0.00 48 1028.1
20260830161802 69 360 0.0 4.0 0.00 0.00 0.00 47 1028.3
20260830160803 70 24 2.0 0.0 0.00 0.00 0.00 45 1028.1
20260830155804 70 322 0.0 7.0 0.00 0.00 0.00 44 1028.0
20260830154804 69 360 1.0 4.0 0.00 0.00 0.00 45 1028.0
20260830153802 69 360 1.0 8.0 0.00 0.00 0.00 45 1028.1
20260830152803 68 167 0.0 8.0 0.00 0.00 0.00 47 1028.0
20260830151804 68 223 2.0 9.0 0.00 0.00 0.00 48 1028.0
20260830150802 67 164 0.0 8.0 0.00 0.00 0.00 49 1028.0
20260830145803 67 109 3.0 9.0 0.00 0.00 0.00 48 1028.0
20260830144804 67 55 2.0 9.0 0.00 0.00 0.00 47 1027.9
20260830143804 68 232 1.0 10.0 0.00 0.00 0.00 44 1027.7
20260830140604 67 89 0.0 3.0 0.00 0.00 0.00 45 1027.7
20260830135603 66 360 3.0 9.0 0.00 0.00 0.00 46 1027.6
20260830134604 66 360 3.0 8.0 0.00 0.00 0.00 46 1027.6
20260830133604 65 360 4.0 10.0 0.00 0.00 0.00 47 1027.6
20260830132603 64 360 0.0 10.0 0.00 0.00 0.00 49 1027.6
20260830131603 63 360 0.0 9.0 0.00 0.00 0.00 51 1027.7
20260830130602 63 169 0.0 10.0 0.00 0.00 0.00 51 1027.5
20260830124502 63 186 1.0 0.0 0.00 0.00 0.00 51 1027.5
20260830123503 63 116 0.0 1.0 0.00 0.00 0.00 51 1027.5
20260830122504 64 116 0.0 2.0 0.00 0.00 0.00 49 1027.5
20260830121502 64 121 0.0 1.0 0.00 0.00 0.00 48 1027.5
20260830115402 65 323 2.0 0.0 0.00 0.00 0.00 46 1027.6
20260830114403 65 47 2.0 6.0 0.00 0.00 0.00 46 1027.5
20260830113404 65 10 4.0 9.0 0.00 0.00 0.00 46 1027.3
20260830112402 66 336 5.0 15.0 0.00 0.00 0.00 45 1027.5
20260830111403 65 347 4.0 7.0 0.00 0.00 0.00 45 1027.3
20260830110403 66 143 2.0 9.0 0.00 0.00 0.00 43 1027.1
20260830105402 66 178 1.0 8.0 0.00 0.00 0.00 43 1027.2
20260830104403 66 360 2.0 7.0 0.00 0.00 0.00 43 1027.1
20260830103404 66 360 2.0 9.0 0.00 0.00 0.00 43 1026.8
20260830102404 66 360 1.0 9.0 0.00 0.00 0.00 43 1026.9
20260830101403 66 360 2.0 8.0 0.00 0.00 0.00 43 1027.1
20260830100403 66 174 2.0 10.0 0.00 0.00 0.00 43 1027.1
20260830095404 66 223 0.0 6.0 0.00 0.00 0.00 43 1027.2
20260830094402 66 360 0.0 13.0 0.00 0.00 0.00 43 1027.2
20260830092305 65 360 3.0 9.0 0.00 0.00 0.00 43 1027.2
20260830090203 65 360 2.0 7.0 0.00 0.00 0.00 44 1027.3
20260830085204 65 360 0.0 9.0 0.00 0.00 0.00 44 1027.2
20260830084204 64 360 2.0 9.0 0.00 0.00 0.00 45 1027.3
20260830081002 65 360 0.0 9.0 0.00 0.00 0.00 45 1027.3
20260830080003 65 130 0.0 7.0 0.00 0.00 0.00 44 1027.6
20260830075003 66 360 0.0 9.0 0.00 0.00 0.00 43 1027.6
20260830074004 66 360 2.0 9.0 0.00 0.00 0.00 42 1027.6
20260830073005 67 360 0.0 10.0 0.00 0.00 0.00 42 1027.6
20260830072004 67 360 1.0 12.0 0.00 0.00 0.00 41 1027.5
20260830071006 67 181 1.0 9.0 0.00 0.00 0.00 42 1027.6
20260830070002 67 24 2.0 9.0 0.00 0.00 0.00 42 1027.5
20260830065003 68 360 1.0 12.0 0.00 0.00 0.00 40 1027.6
20260830064004 68 360 2.0 13.0 0.00 0.00 0.00 40 1027.6
20260830063003 68 360 6.0 9.0 0.00 0.00 0.00 41 1027.6
20260830062003 68 360 1.0 9.0 0.00 0.00 1.65 41 1027.7
20260830061004 68 360 2.0 9.0 0.00 0.00 1.65 41 1027.7
20260830060002 68 96 1.0 10.0 0.00 0.00 1.65 41 1027.6
20260830055003 68 360 1.0 10.0 0.00 0.00 1.65 41 1027.7
20260830054004 68 188 5.0 9.0 0.00 0.00 1.65 40 1027.6
20260830053004 68 188 2.0 9.0 0.00 0.00 1.65 40 1027.9
20260830052003 68 216 3.0 9.0 0.00 0.00 1.65 40 1027.9
20260830051003 69 28 3.0 10.0 0.00 0.00 1.65 39 1027.7
20260830050004 69 192 3.0 14.0 0.00 0.00 1.65 38 1027.9
20260830045002 70 109 4.0 17.0 0.00 0.00 1.65 37 1028.0
20260830044003 70 137 6.0 19.0 0.00 0.00 1.65 37 1028.0
20260830035703 69 222 1.0 9.0 0.00 0.00 1.65 37 1027.9
20260830034702 69 360 3.0 8.0 0.00 0.00 1.65 38 1028.0